SV2BZQ-2 Thessalonik GR current weather conditions

sailwx.info

Wind from 300 at 2 knots gusting 6

Air temperature 13.9° C
Dewpoint 12.1° C

Last reported at 2016-Sep-27 05:53 UTC.
Time now 2016-Sep-27 06:58 UTC

Location: N 40°41' E 022°51'.
View on Google Maps.

See reports from other nearby stations

  
Tides and Currents Weather Stations Pressure Air Temp Water Temp Dewpoint Dewpoint Depression Visibility Wind Speed Wind Dir Waves Ship Positions
date/time (UTC)wind fromknots sea level pressurealtimeterstation pressurevisibilityair tempwater tempwave heightnotes
2016-Sep-27 05:53 300 2 gusting 6 13.9
2016-Sep-27 05:49 302 3 gusting 6 13.3
2016-Sep-27 05:43 302 2 gusting 6 13.3
2016-Sep-27 05:39 304 2 gusting 6 13.3
2016-Sep-27 05:33 315 2 gusting 6 13.3
2016-Sep-27 05:29 302 3 gusting 6 12.8
2016-Sep-27 05:23 298 3 gusting 6 12.8
2016-Sep-27 05:19 295 3 gusting 6 12.8
2016-Sep-27 05:13 300 0 gusting 6 12.8
2016-Sep-27 05:09 300 12.8
2016-Sep-27 05:05 307 0 gusting 4 12.8
2016-Sep-27 04:59 299 0 gusting 4 12.2
2016-Sep-27 04:54 296 0 gusting 4 12.2
2016-Sep-27 04:48 292 0 gusting 4 12.2
2016-Sep-27 04:44 299 12.2
2016-Sep-27 04:38 303 12.2
2016-Sep-27 04:34 304 12.2
2016-Sep-27 04:28 306 12.2
2016-Sep-27 04:24 310 12.2
2016-Sep-27 04:20 292 0 gusting 4 12.2
2016-Sep-27 04:13 296 0 gusting 4 12.2
2016-Sep-27 04:09 300 0 gusting 4 12.2
2016-Sep-27 04:03 299 1 gusting 6 12.2
2016-Sep-27 03:59 296 1 gusting 6 12.8
2016-Sep-27 03:53 290 0 gusting 6 12.8
2016-Sep-27 03:49 294 12.8
2016-Sep-27 03:45 288 12.2
2016-Sep-27 03:39 284 0 gusting 5 12.8
2016-Sep-27 03:33 280 12.8
2016-Sep-27 03:29 298 12.8
2016-Sep-27 03:23 298 13.3
2016-Sep-27 03:19 290 0 gusting 6 13.3
2016-Sep-27 03:14 294 12.8
2016-Sep-27 03:09 296 13.3
2016-Sep-27 03:03 299 13.3
2016-Sep-27 02:59 299 13.3
2016-Sep-27 02:53 302 13.3
2016-Sep-27 02:49 302 13.3
2016-Sep-27 02:43 302 13.3
2016-Sep-27 02:39 302 13.9
2016-Sep-27 02:33 302 13.9
2016-Sep-27 02:29 302 13.9
2016-Sep-27 02:23 302 13.9
2016-Sep-27 02:19 302 13.9
2016-Sep-27 02:13 302 13.9
2016-Sep-27 02:09 301 0 gusting 3 13.9
2016-Sep-27 02:03 296 13.9
2016-Sep-27 01:59 298 14.4
2016-Sep-27 01:53 298 14.4
2016-Sep-27 01:49 298 14.4
2016-Sep-27 01:43 296 14.4
2016-Sep-27 01:39 296 14.4
2016-Sep-27 01:33 294 15.0
2016-Sep-27 01:29 300 15.0
2016-Sep-27 01:25 301 15.0
2016-Sep-27 01:19 300 15.0
2016-Sep-27 01:15 300 15.0
2016-Sep-27 01:09 300 15.6
2016-Sep-27 01:03 301 15.6
2016-Sep-27 00:59 298 15.6
2016-Sep-27 00:55 298 15.6
2016-Sep-27 00:49 298 0 gusting 4 15.6
2016-Sep-27 00:44 288 1 gusting 5 15.6
2016-Sep-27 00:38 305 2 gusting 6 16.1
2016-Sep-27 00:34 295 1 gusting 6 16.1
2016-Sep-27 00:28 279 16.7
2016-Sep-27 00:24 102 16.7
2016-Sep-27 00:18 105 16.7
2016-Sep-27 00:14 102 16.7
2016-Sep-27 00:10 102 16.7
2016-Sep-27 00:04 102 16.7
2016-Sep-27 00:00 103 16.7
2016-Sep-26 23:54 103 17.2
2016-Sep-26 23:49 103 17.2
2016-Sep-26 23:43 103 17.2
2016-Sep-26 23:39 053 17.8
2016-Sep-26 23:33 17.8
2016-Sep-26 23:29 005 17.8
2016-Sep-26 23:23 17.8
2016-Sep-26 23:19 17.8
2016-Sep-26 23:13 024 2 gusting 7 17.8
2016-Sep-26 23:09 052 2 gusting 7 17.8
2016-Sep-26 23:03 055 2 gusting 6 17.8
2016-Sep-26 22:59 070 3 gusting 11 17.8
2016-Sep-26 22:55 082 5 gusting 13 17.8
2016-Sep-26 22:49 047 5 gusting 13 17.8
2016-Sep-26 22:43 115 5 gusting 11 17.8
2016-Sep-26 22:39 066 5 gusting 11 17.8
2016-Sep-26 22:35 079 4 gusting 11 17.8
2016-Sep-26 22:29 046 4 gusting 11 18.3
2016-Sep-26 22:25 084 3 gusting 11 18.3
2016-Sep-26 22:18 046 3 gusting 11 18.3
2016-Sep-26 22:14 041 5 gusting 14 18.3
2016-Sep-26 22:08 059 6 gusting 14 18.3
2016-Sep-26 22:04 062 5 gusting 10 18.3
2016-Sep-26 21:58 061 3 gusting 9 18.3
2016-Sep-26 21:54 073 2 gusting 9 18.3
2016-Sep-26 21:48 063 3 gusting 10 18.3
2016-Sep-26 21:44 057 3 gusting 10 18.3
2016-Sep-26 21:38 046 3 gusting 9 18.3
2016-Sep-26 21:34 082 3 gusting 9 18.3
2016-Sep-26 21:28 052 4 gusting 9 18.3
2016-Sep-26 21:24 046 3 gusting 9 18.3
2016-Sep-26 21:20 051 2 gusting 9 18.3
2016-Sep-26 21:14 028 2 gusting 7 18.3
2016-Sep-26 21:09 069 2 gusting 7 17.8
2016-Sep-26 21:03 072 2 gusting 6 17.8
2016-Sep-26 20:59 013 1 gusting 6 17.8
2016-Sep-26 20:53 063 1 gusting 6 17.8
2016-Sep-26 20:49 046 2 gusting 6 17.8
2016-Sep-26 20:44 073 1 gusting 6 17.8
2016-Sep-26 20:38 059 1 gusting 5 17.8
2016-Sep-26 20:34 075 2 gusting 5 17.8
2016-Sep-26 20:27 083 1 gusting 6 17.8
2016-Sep-26 20:23 061 1 gusting 6 17.8
2016-Sep-26 20:19 050 1 gusting 6 17.8
2016-Sep-26 20:13 045 1 gusting 6 17.8
2016-Sep-26 20:09 046 0 gusting 5 18.3
2016-Sep-26 20:03 046 1 gusting 5 18.3
2016-Sep-26 19:59 049 1 gusting 4 18.3
2016-Sep-26 19:53 041 1 gusting 4 18.3
2016-Sep-26 19:50 067 1 gusting 4 18.3
2016-Sep-26 19:44 059 0 gusting 4 18.3
2016-Sep-26 19:40 052 0 gusting 4 18.3
2016-Sep-26 19:33 067 0 gusting 5 18.9
2016-Sep-26 19:29 062 0 gusting 5 18.9
2016-Sep-26 19:24 068 0 gusting 4 18.9
2016-Sep-26 19:18 098 18.9
2016-Sep-26 19:15 098 18.9
2016-Sep-26 19:09 098 18.9
2016-Sep-26 19:04 099 0 gusting 2 19.4
2016-Sep-26 18:58 098 0 gusting 2 19.4
2016-Sep-26 18:54 096 0 gusting 2 19.4
2016-Sep-26 18:48 097 1 gusting 3 19.4
2016-Sep-26 18:44 097 1 gusting 5 19.4
2016-Sep-26 18:38 103 0 gusting 5 18.9
2016-Sep-26 18:34 115 1 gusting 3 19.4
2016-Sep-26 18:30 115 2 gusting 6 19.4
2016-Sep-26 18:23 114 2 gusting 6 19.4
2016-Sep-26 18:19 088 2 gusting 6 19.4
2016-Sep-26 18:13 121 2 gusting 6 19.4
2016-Sep-26 18:09 120 1 gusting 6 19.4
2016-Sep-26 18:03 118 1 gusting 4 19.4
2016-Sep-26 17:59 121 1 gusting 6 19.4
2016-Sep-26 17:55 119 0 gusting 6 19.4
2016-Sep-26 17:49 139 19.4
2016-Sep-26 17:45 141 20.0
2016-Sep-26 17:39 145 20.0
2016-Sep-26 17:33 149 20.0
2016-Sep-26 17:29 148 20.0
2016-Sep-26 17:25 148 20.0
2016-Sep-26 17:18 148 0 gusting 3 20.0
2016-Sep-26 17:15 129 0 gusting 3 20.0
2016-Sep-26 17:08 143 0 gusting 3 20.0
2016-Sep-26 17:04 150 0 gusting 2 20.0
2016-Sep-26 16:58 152 0 gusting 6 20.0
2016-Sep-26 16:54 149 0 gusting 6 20.0
2016-Sep-26 16:48 153 0 gusting 3 20.6
2016-Sep-26 16:43 156 0 gusting 3 20.6
2016-Sep-26 16:38 152 0 gusting 4 20.0
2016-Sep-26 16:34 149 0 gusting 3 20.6
2016-Sep-26 16:28 147 1 gusting 6 20.6
2016-Sep-26 16:24 140 2 gusting 6 20.6
2016-Sep-26 16:18 154 2 gusting 6 21.1
2016-Sep-26 16:14 159 2 gusting 6 21.1
2016-Sep-26 16:08 147 2 gusting 6 21.1
2016-Sep-26 16:04 112 1 gusting 6 21.7
2016-Sep-26 15:58 144 0 gusting 5 21.7
2016-Sep-26 15:54 161 1 gusting 6 21.7
2016-Sep-26 15:50 148 2 gusting 7 22.2
2016-Sep-26 15:44 153 2 gusting 9 22.2
2016-Sep-26 15:39 166 2 gusting 9 22.2
2016-Sep-26 15:33 157 3 gusting 10 22.8
2016-Sep-26 15:29 130 3 gusting 10 22.8
2016-Sep-26 15:23 167 3 gusting 8 23.3
2016-Sep-26 15:19 159 3 gusting 7 23.3
2016-Sep-26 15:14 163 3 gusting 8 23.3
2016-Sep-26 15:09 154 3 gusting 10 23.3
2016-Sep-26 15:03 155 3 gusting 9 23.9
2016-Sep-26 14:59 161 4 gusting 8 23.9
2016-Sep-26 14:53 138 3 gusting 8 23.9
2016-Sep-26 14:49 168 3 gusting 7 23.9
2016-Sep-26 14:43 209 2 gusting 8 23.9
2016-Sep-26 14:39 166 2 gusting 7 23.9
2016-Sep-26 14:33 165 3 gusting 6 23.9
2016-Sep-26 14:29 159 3 gusting 6 23.9
2016-Sep-26 14:25 190 4 gusting 8 24.4
2016-Sep-26 14:19 163 3 gusting 8 24.4
2016-Sep-26 14:14 169 3 gusting 8 24.4
2016-Sep-26 14:09 175 2 gusting 8 24.4
2016-Sep-26 14:04 163 2 gusting 7 24.4
2016-Sep-26 13:58 181 2 gusting 7 24.4
2016-Sep-26 13:54 160 2 gusting 6 24.4
2016-Sep-26 13:48 189 2 gusting 6 24.4
2016-Sep-26 13:44 223 2 gusting 6 24.4
2016-Sep-26 13:38 217 0 gusting 5 24.4
2016-Sep-26 13:34 169 2 gusting 5 24.4
2016-Sep-26 13:28 167 1 gusting 5 24.4
2016-Sep-26 13:24 192 0 gusting 5 24.4
2016-Sep-26 13:19 190 1 gusting 6 24.4
2016-Sep-26 13:13 207 3 gusting 6 24.4
2016-Sep-26 13:10 207 2 gusting 6 24.4
2016-Sep-26 13:03 222 2 gusting 6 23.9
2016-Sep-26 12:59 246 3 gusting 6 23.9
2016-Sep-26 12:53 195 3 gusting 7 23.9
2016-Sep-26 12:49 223 2 gusting 7 23.9
2016-Sep-26 12:43 297 1 gusting 6 23.9
2016-Sep-26 12:39 261 2 gusting 9 23.9
2016-Sep-26 12:33 222 2 gusting 9 24.4
2016-Sep-26 12:29 160 3 gusting 7 23.9
2016-Sep-26 12:23 228 2 gusting 6 23.9
2016-Sep-26 12:18 214 2 gusting 6 23.9
2016-Sep-26 12:14 219 1 gusting 6 23.9
2016-Sep-26 12:10 221 2 gusting 6 23.9
2016-Sep-26 12:04 321 3 gusting 9 23.9
2016-Sep-26 12:00 217 3 gusting 9 24.4
2016-Sep-26 11:52 221 3 gusting 6 23.9
2016-Sep-26 11:48 240 3 gusting 7 23.9
2016-Sep-26 11:43 223 3 gusting 6 23.9
2016-Sep-26 11:39 225 2 gusting 6 23.9
2016-Sep-26 11:35 261 1 gusting 6 23.9
2016-Sep-26 11:28 220 1 gusting 6 23.9
2016-Sep-26 11:24 259 1 gusting 6 23.3
2016-Sep-26 11:18 225 2 gusting 6 23.3
2016-Sep-26 11:14 203 3 gusting 6 23.3
2016-Sep-26 11:08 261 2 gusting 7 23.3
2016-Sep-26 11:04 321 1 gusting 7 23.3
2016-Sep-26 10:58 288 2 gusting 6 23.3
2016-Sep-26 10:54 300 2 gusting 6 23.3
2016-Sep-26 10:48 291 0 gusting 3 23.3
2016-Sep-26 10:44 340 0 gusting 2 23.9
2016-Sep-26 10:40 041 0 gusting 3 23.9
2016-Sep-26 10:34 013 0 gusting 3 23.3
2016-Sep-26 10:29 322 0 gusting 4 23.3
2016-Sep-26 10:23 338 1 gusting 5 23.3
2016-Sep-26 10:19 005 1 gusting 5 23.3
2016-Sep-26 10:13 338 1 gusting 5 23.3
2016-Sep-26 10:09 076 2 gusting 6 22.8
2016-Sep-26 10:03 333 3 gusting 7 22.8
2016-Sep-26 09:59 310 3 gusting 7 22.8
2016-Sep-26 09:53 323 1 gusting 6 22.8
2016-Sep-26 09:49 317 0 gusting 6 22.2
2016-Sep-26 09:43 271 0 gusting 5 22.2
2016-Sep-26 09:39 267 1 gusting 6 22.2
2016-Sep-26 09:33 270 2 gusting 6 21.7
2016-Sep-26 09:29 275 2 gusting 6 21.7
2016-Sep-26 09:25 288 1 gusting 6 21.7
2016-Sep-26 09:18 268 2 gusting 6 21.1
2016-Sep-26 09:13 279 3 gusting 6 21.1
2016-Sep-26 09:09 281 3 gusting 6 21.1
2016-Sep-26 09:04 299 3 gusting 6 21.1
2016-Sep-26 08:58 268 1 gusting 6 21.1
2016-Sep-26 08:54 318 0 gusting 6 21.1
2016-Sep-26 08:48 275 21.1
2016-Sep-26 08:44 275 21.1
2016-Sep-26 08:38 273 0 gusting 6 21.1
2016-Sep-26 08:34 272 1 gusting 6 20.6
2016-Sep-26 08:28 269 1 gusting 6 20.6
2016-Sep-26 08:24 256 1 gusting 4 20.6
2016-Sep-26 08:20 257 0 gusting 4 20.6
2016-Sep-26 08:14 248 1 gusting 4 20.6
2016-Sep-26 08:07 288 1 gusting 5 20.0
2016-Sep-26 08:04 287 0 gusting 4 20.0
2016-Sep-26 07:59 272 2 gusting 6 20.0
2016-Sep-26 07:54 292 1 gusting 5 19.4
2016-Sep-26 07:49 269 3 gusting 6 20.0
2016-Sep-26 07:43 326 3 gusting 6 20.0
2016-Sep-26 07:39 291 3 gusting 7 19.4
2016-Sep-26 07:33 272 2 gusting 7 19.4
2016-Sep-26 07:29 304 1 gusting 5 19.4
2016-Sep-26 07:23 322 0 gusting 5 18.9
2016-Sep-26 07:19 281 0 gusting 6 19.4
2016-Sep-26 07:13 284 0 gusting 3 18.9
2016-Sep-26 07:09 277 1 gusting 6 18.9
2016-Sep-26 07:03 275 0 gusting 6 18.9
2016-Sep-26 06:59 279 18.9
2016-Sep-26 06:55 053 18.9
2016-Sep-26 06:49 053 18.9
2016-Sep-26 06:45 053 18.9
2016-Sep-26 06:39 053 18.3
2016-Sep-26 06:35 053 18.3
2016-Sep-26 06:28 053 18.3
2016-Sep-26 06:24 053 18.3
2016-Sep-26 06:18 039 18.3
2016-Sep-26 06:14 338 18.3
2016-Sep-26 06:08 350 17.8
2016-Sep-26 06:04 329 0 gusting 4 17.8
2016-Sep-26 05:58 342 1 gusting 5 17.8
2016-Sep-26 05:54 327 1 gusting 5 17.8
2016-Sep-26 05:48 322 1 gusting 5 17.8
2016-Sep-26 05:44 327 2 gusting 5 17.8
2016-Sep-26 05:38 330 1 gusting 5 17.8
2016-Sep-26 05:34 323 17.8
2016-Sep-26 05:28 322 17.2
2016-Sep-26 05:24 080 17.2
2016-Sep-26 05:18 081 17.2
2016-Sep-26 05:14 080 17.2
2016-Sep-26 05:09 080 17.2
2016-Sep-26 05:03 080 17.8
2016-Sep-26 04:59 056 0 gusting 5 17.8
2016-Sep-26 04:53 345 0 gusting 8 17.2
2016-Sep-26 04:49 298 17.2
2016-Sep-26 04:43 028 17.2
2016-Sep-26 04:39 315 17.2
2016-Sep-26 04:33 061 17.2
2016-Sep-26 04:29 063 17.2
2016-Sep-26 04:23 063 17.2
2016-Sep-26 04:19 337 17.2
2016-Sep-26 04:15 337 0 gusting 4 17.2
2016-Sep-26 04:09 323 0 gusting 4 17.2
2016-Sep-26 04:05 300 17.2
2016-Sep-26 03:59 299 0 gusting 4 16.7
2016-Sep-26 03:54 317 0 gusting 4 16.7
2016-Sep-26 03:48 300 0 gusting 3 16.7
2016-Sep-26 03:44 310 16.7
2016-Sep-26 03:38 306 16.7
2016-Sep-26 03:34 333 16.7
2016-Sep-26 03:28 336 0 gusting 4 16.7
2016-Sep-26 03:24 337 0 gusting 4 16.7
2016-Sep-26 03:19 355 16.1
2016-Sep-26 03:14 355 16.1
2016-Sep-26 03:08 350 16.1
2016-Sep-26 03:04 360 16.1
2016-Sep-26 02:58 16.1
2016-Sep-26 02:54 16.1
2016-Sep-26 02:49 360 16.1
2016-Sep-26 02:44 16.1
2016-Sep-26 02:38 16.1
2016-Sep-26 02:34 295 16.1
2016-Sep-26 02:28 296 16.1
2016-Sep-26 02:24 297 16.1
2016-Sep-26 02:18 341 16.1
2016-Sep-26 02:14 341 16.7
2016-Sep-26 02:08 340 16.7
2016-Sep-26 02:04 340 16.1
2016-Sep-26 01:58 340 16.7
2016-Sep-26 01:54 340 16.7
2016-Sep-26 01:49 340 16.7
2016-Sep-26 01:43 340 16.7
2016-Sep-26 01:39 340 16.7
2016-Sep-26 01:33 340 16.7
2016-Sep-26 01:29 340 16.7
2016-Sep-26 01:23 338 16.7
2016-Sep-26 01:19 338 16.7
2016-Sep-26 01:13 338 16.7
2016-Sep-26 01:09 338 0 gusting 4 16.7
2016-Sep-26 01:03 340 1 gusting 5 16.7
2016-Sep-26 00:59 324 1 gusting 5 16.7
2016-Sep-26 00:53 012 1 gusting 6 16.7
2016-Sep-26 00:49 314 3 gusting 6 16.7
2016-Sep-26 00:43 309 3 gusting 6 16.7
2016-Sep-26 00:39 325 2 gusting 6 16.7
2016-Sep-26 00:33 325 0 gusting 4 16.7
2016-Sep-26 00:29 332 0 gusting 5 16.7
2016-Sep-26 00:25 311 0 gusting 5 16.7
2016-Sep-26 00:19 298 1 gusting 6 16.7
2016-Sep-26 00:13 309 1 gusting 6 16.7
2016-Sep-26 00:09 302 1 gusting 4 16.7
2016-Sep-26 00:05 292 0 gusting 5 16.7
2016-Sep-25 23:58 291 1 gusting 6 16.7
2016-Sep-25 23:54 279 1 gusting 6 16.7
2016-Sep-25 23:48 275 0 gusting 3 16.7
2016-Sep-25 23:44 296 1 gusting 5 16.7
2016-Sep-25 23:38 269 1 gusting 6 16.7
2016-Sep-25 23:34 267 0 gusting 6 16.7
2016-Sep-25 23:28 286 0 gusting 5 16.7
2016-Sep-25 23:24 281 0 gusting 5 16.7
2016-Sep-25 23:18 331 16.7
2016-Sep-25 23:14 331 16.7
2016-Sep-25 23:08 331 16.7
2016-Sep-25 23:04 331 0 gusting 5 16.7
2016-Sep-25 22:58 338 2 gusting 8 17.2
2016-Sep-25 22:54 334 2 gusting 8 17.2
2016-Sep-25 22:48 290 4 gusting 9 17.2
2016-Sep-25 22:44 309 5 gusting 10 17.2
2016-Sep-25 22:38 334 4 gusting 10 17.2
2016-Sep-25 22:34 304 4 gusting 9 17.2
2016-Sep-25 22:28 322 5 gusting 10 17.2
2016-Sep-25 22:24 310 5 gusting 10 17.2
2016-Sep-25 22:18 342 4 gusting 9 17.2
2016-Sep-25 22:14 344 5 gusting 8 17.2
2016-Sep-25 22:08 311 4 gusting 8 17.2
2016-Sep-25 22:04 316 2 gusting 7 17.2
2016-Sep-25 21:58 314 0 gusting 7 17.2
2016-Sep-25 21:54 17.2
2016-Sep-25 21:48 17.2
2016-Sep-25 21:44 005 17.2
2016-Sep-25 21:38 011 17.2
2016-Sep-25 21:34 015 17.2
2016-Sep-25 21:28 013 17.2
2016-Sep-25 21:23 014 17.2
2016-Sep-25 21:17 014 17.2
2016-Sep-25 21:13 034 17.2
2016-Sep-25 21:09 031 17.2
2016-Sep-25 21:02 031 17.2
2016-Sep-25 20:59 030 17.2
2016-Sep-25 20:53 031 17.2
2016-Sep-25 20:49 032 17.2
2016-Sep-25 20:44 032 17.8
2016-Sep-25 20:40 032 17.8
2016-Sep-25 20:33 032 17.8
2016-Sep-25 20:28 033 17.8
2016-Sep-25 20:23 323 17.8
2016-Sep-25 20:20 323 17.8
2016-Sep-25 20:13 323 18.3
2016-Sep-25 20:09 323 18.3
2016-Sep-25 20:04 323 17.8
2016-Sep-25 19:59 323 18.3
2016-Sep-25 19:53 323 18.3
2016-Sep-25 19:49 323 18.3
2016-Sep-25 19:43 323 18.3
2016-Sep-25 19:39 323 18.3
2016-Sep-25 19:33 323 18.3
2016-Sep-25 19:29 323 18.9
2016-Sep-25 19:22 323 18.9
2016-Sep-25 19:18 323 0 gusting 4 18.9
2016-Sep-25 19:14 323 0 gusting 4 19.4
2016-Sep-25 19:08 271 19.4
2016-Sep-25 19:04 191 19.4
2016-Sep-25 18:58 191 19.4
2016-Sep-25 18:54 191 19.4
2016-Sep-25 18:48 191 19.4
2016-Sep-25 18:44 191 19.4
2016-Sep-25 18:38 191 19.4
2016-Sep-25 18:34 191 20.0
2016-Sep-25 18:28 191 20.0
2016-Sep-25 18:24 191 20.0
2016-Sep-25 18:20 191 20.0
2016-Sep-25 18:13 191 20.0
2016-Sep-25 18:09 191 20.0
2016-Sep-25 18:03 191 20.0
2016-Sep-25 17:59 191 20.0
2016-Sep-25 17:53 191 20.0
2016-Sep-25 17:47 191 20.0
2016-Sep-25 17:42 191 20.6
2016-Sep-25 17:32 191 20.6
2016-Sep-25 17:22 192 20.6
2016-Sep-25 17:16 191 20.6
2016-Sep-25 17:12 192 20.6
2016-Sep-25 17:02 215 21.1
2016-Sep-25 16:52 215 21.1
2016-Sep-25 16:46 216 21.1
2016-Sep-25 16:42 217 21.1
2016-Sep-25 16:32 217 21.7
2016-Sep-25 16:22 217 21.7
2016-Sep-25 16:15 217 21.7
2016-Sep-25 16:12 217 0 gusting 4 22.2
2016-Sep-25 16:02 210 0 gusting 4 22.8
2016-Sep-25 15:52 198 0 gusting 7 22.8
2016-Sep-25 15:45 223 1 gusting 4 22.8
2016-Sep-25 15:43 222 1 gusting 7 23.3
2016-Sep-25 15:32 218 3 gusting 6 23.3
2016-Sep-25 15:27 223 1 gusting 5 23.9
2016-Sep-25 15:23 217 1 gusting 6 23.9
2016-Sep-25 15:19 225 1 gusting 6 23.9
2016-Sep-25 15:13 213 1 gusting 5 23.9
2016-Sep-25 15:09 192 1 gusting 5 23.9
2016-Sep-25 15:03 236 2 gusting 6 23.9
2016-Sep-25 14:59 210 4 gusting 7 23.9
2016-Sep-25 14:53 220 3 gusting 7 24.4
2016-Sep-25 14:50 226 3 gusting 8 24.4
2016-Sep-25 14:43 205 2 gusting 6 25.0
2016-Sep-25 14:39 221 2 gusting 5 25.0
2016-Sep-25 14:33 232 2 gusting 5 25.0
2016-Sep-25 14:29 240 2 gusting 6 25.0
2016-Sep-25 14:23 261 2 gusting 6 25.0
2016-Sep-25 14:19 280 2 gusting 5 25.0
2016-Sep-25 14:15 266 1 gusting 6 25.0
2016-Sep-25 14:02 271 2 gusting 9 25.6
2016-Sep-25 14:00 284 1 gusting 6 25.0
2016-Sep-25 13:52 277 1 gusting 9 25.6
2016-Sep-25 13:44 335 1 gusting 8 25.0
2016-Sep-25 13:32 269 3 gusting 6 25.0
2016-Sep-25 13:29 263 1 gusting 7 24.4
2016-Sep-25 13:22 311 3 gusting 6 25.0
2016-Sep-25 13:14 281 1 gusting 4 25.0
2016-Sep-25 13:02 307 1 gusting 9 25.0
2016-Sep-25 12:59 311 24.4
2016-Sep-25 12:52 299 4 gusting 9 25.0
2016-Sep-25 12:48 274 3 gusting 9 25.0
2016-Sep-25 12:42 273 3 gusting 10 25.6
2016-Sep-25 12:33 281 0 gusting 7 25.0
2016-Sep-25 12:22 321 3 gusting 8 25.0
2016-Sep-25 12:18 267 0 gusting 6 24.4
2016-Sep-25 12:12 268 3 gusting 10 24.4
2016-Sep-25 12:07 271 2 gusting 8 24.4
2016-Sep-25 12:02 309 4 gusting 10 24.4
2016-Sep-25 11:56 315 5 gusting 10 24.4
2016-Sep-25 11:54 317 5 gusting 10 24.4
2016-Sep-25 11:48 332 5 gusting 10 24.4
2016-Sep-25 11:44 294 5 gusting 8 24.4
2016-Sep-25 11:38 232 4 gusting 10 24.4
2016-Sep-25 11:34 279 4 gusting 10 24.4
2016-Sep-25 11:28 248 4 gusting 8 24.4
2016-Sep-25 11:24 295 3 gusting 8 24.4
2016-Sep-25 11:18 280 4 gusting 9 24.4
2016-Sep-25 11:14 277 4 gusting 9 24.4
2016-Sep-25 11:10 271 3 gusting 9 24.4
2016-Sep-25 11:04 291 2 gusting 7 23.9
2016-Sep-25 10:59 283 3 gusting 7 23.9
2016-Sep-25 10:53 327 4 gusting 9 23.3
2016-Sep-25 10:49 259 6 gusting 10 23.3
2016-Sep-25 10:43 244 6 gusting 11 23.3
2016-Sep-25 10:39 269 6 gusting 11 23.3
2016-Sep-25 10:33 256 4 gusting 10 23.3
2016-Sep-25 10:29 289 4 gusting 9 23.3
2016-Sep-25 10:23 259 6 gusting 12 23.3
2016-Sep-25 10:19 303 5 gusting 12 23.3
2016-Sep-25 10:13 279 6 gusting 12 23.3
2016-Sep-25 10:09 323 5 gusting 12 23.3
2016-Sep-25 10:03 319 4 gusting 12 23.3
2016-Sep-25 09:59 260 5 gusting 10 23.3
2016-Sep-25 09:53 276 4 gusting 10 23.3
2016-Sep-25 09:49 294 4 gusting 8 23.3
2016-Sep-25 09:43 260 4 gusting 11 22.8
2016-Sep-25 09:39 263 4 gusting 11 22.8
2016-Sep-25 09:33 273 5 gusting 10 22.2
2016-Sep-25 09:29 281 6 gusting 10 22.2
2016-Sep-25 09:25 333 6 gusting 10 22.2
2016-Sep-25 09:19 310 5 gusting 9 22.2
2016-Sep-25 09:14 345 4 gusting 8 21.7
2016-Sep-25 09:08 276 4 gusting 8 21.7
2016-Sep-25 09:04 034 6 gusting 10 21.7
2016-Sep-25 08:58 327 6 gusting 12 21.1
2016-Sep-25 08:54 300 5 gusting 12 21.7
2016-Sep-25 08:48 309 5 gusting 10 21.1
2016-Sep-25 08:44 265 6 gusting 11 21.1
2016-Sep-25 08:38 273 6 gusting 11 21.1
2016-Sep-25 08:34 273 6 gusting 11 21.1
2016-Sep-25 08:28 296 5 gusting 13 20.6
2016-Sep-25 08:24 288 5 gusting 13 20.6
2016-Sep-25 08:18 279 4 gusting 9 20.6
2016-Sep-25 08:14 317 4 gusting 9 20.6
2016-Sep-25 08:09 350 4 gusting 9 20.6
2016-Sep-25 08:03 349 4 gusting 9 20.6
2016-Sep-25 07:59 286 4 gusting 9 20.0
2016-Sep-25 07:53 330 4 gusting 9 20.0
2016-Sep-25 07:49 296 4 gusting 8 20.0
2016-Sep-25 07:43 338 4 gusting 8 19.4
2016-Sep-25 07:39 279 5 gusting 9 19.4
2016-Sep-25 07:33 319 5 gusting 11 19.4
2016-Sep-25 07:29 306 5 gusting 11 19.4
2016-Sep-25 07:23 319 6 gusting 9 18.9
2016-Sep-25 07:19 329 5 gusting 9 18.9
2016-Sep-25 07:13 338 4 gusting 8 18.3
2016-Sep-25 07:09 333 4 gusting 9 18.3
2016-Sep-25 07:03 342 3 gusting 9 17.8
2016-Sep-25 06:59 011 3 gusting 9 17.8
2016-Sep-25 06:54 290 4 gusting 9 17.8
2016-Sep-25 06:48 015 4 gusting 9 17.2
2016-Sep-25 06:44 325 4 gusting 8 17.2
2016-Sep-25 06:38 032 4 gusting 8 16.7
2016-Sep-25 06:34 317 2 gusting 8 16.7
2016-Sep-25 06:28 327 1 gusting 8 16.1
2016-Sep-25 06:24 304 0 gusting 4 16.1
2016-Sep-25 06:18 315 0 gusting 4 15.6
2016-Sep-25 06:14 313 15.6
2016-Sep-25 06:10 306 15.6
2016-Sep-25 06:04 290 0 gusting 3 15.6
2016-Sep-25 06:00 289 0 gusting 3 15.0